EW6810 Weather Reports


Display with metric or nautical units.
time (UTC)temp
F
wind
direction
speed
MPH
gust
MPH
rain 1hr
in
rain 24hr
in
rain mn
in
humidity
%
barometer
mb
20260510220055 64 145 2.0 6.0 0.00 0.00 0.00 62 1014.4
20260510215549 64 144 2.0 6.0 0.00 0.00 0.00 64 1014.4
20260510215045 63 149 2.0 4.0 0.00 0.00 0.00 62 1014.3
20260510214544 63 191 1.0 6.0 0.00 0.00 0.00 64 1014.3
20260510214042 63 67 2.0 6.0 0.00 0.00 0.00 62 1014.4
20260510213541 63 157 3.0 8.0 0.00 0.00 0.00 63 1014.4
20260510213041 64 186 2.0 8.0 0.00 0.00 0.00 61 1014.3
20260510212540 64 166 1.0 10.0 0.00 0.00 0.00 59 1014.4
20260510212040 66 134 1.0 10.0 0.00 0.00 0.00 55 1014.3
20260510211535 67 169 1.0 8.0 0.00 0.00 0.00 58 1014.2
20260510211033 67 111 1.0 6.0 0.00 0.00 0.00 58 1014.1
20260510210533 66 292 2.0 5.0 0.00 0.00 0.00 62 1014.1
20260510210035 63 52 0.0 5.0 0.00 0.00 0.00 64 1014.1
20260510205531 63 254 1.0 4.0 0.00 0.00 0.00 63 1014.1
20260510205030 65 106 1.0 6.0 0.00 0.00 0.00 61 1014.0
20260510204529 65 83 2.0 6.0 0.00 0.00 0.00 64 1014.0
20260510204027 65 65 1.0 5.0 0.00 0.00 0.00 63 1014.1
20260510203526 64 121 3.0 9.0 0.00 0.00 0.00 61 1014.1
20260510203025 64 17 1.0 9.0 0.00 0.00 0.00 61 1014.1
20260510202524 64 48 2.0 7.0 0.00 0.00 0.00 60 1014.0
20260510202024 63 140 2.0 6.0 0.00 0.00 0.00 62 1014.1
20260510201520 64 203 2.0 5.0 0.00 0.00 0.00 60 1014.1
20260510201019 65 75 1.0 6.0 0.00 0.00 0.00 59 1014.1
20260510200518 66 346 3.0 6.0 0.00 0.00 0.00 57 1014.0
20260510200017 66 55 2.0 6.0 0.00 0.00 0.00 59 1014.0
20260510195514 65 63 1.0 7.0 0.00 0.00 0.00 63 1014.1
20260510195013 63 119 2.0 7.0 0.00 0.00 0.00 60 1014.0
20260510194514 64 55 1.0 8.0 0.00 0.00 0.00 60 1014.0
20260510194012 65 165 2.0 8.0 0.00 0.00 0.00 59 1014.1
20260510193509 63 115 1.0 6.0 0.00 0.00 0.00 61 1014.1
20260510193008 64 155 2.0 8.0 0.00 0.00 0.00 59 1014.0
20260510192506 64 163 2.0 8.0 0.00 0.00 0.00 58 1013.9
20260510192004 65 119 2.0 7.0 0.00 0.00 0.00 61 1013.9
20260510191503 64 225 2.0 6.0 0.00 0.00 0.00 61 1014.0
20260510191003 63 180 1.0 10.0 0.00 0.00 0.00 64 1013.8
20260510190603 63 138 4.0 10.0 0.00 0.00 0.00 61 1013.7
20260510190109 64 203 2.0 9.0 0.00 0.00 0.00 63 1013.7
20260510185557 63 148 3.0 9.0 0.00 0.00 0.00 62 1013.7
20260510185056 63 47 3.0 6.0 0.00 0.00 0.00 65 1013.6
20260510184556 63 124 1.0 5.0 0.00 0.00 0.00 64 1013.7
20260510184052 63 39 1.0 7.0 0.00 0.00 0.00 64 1013.7
20260510183551 63 140 2.0 7.0 0.00 0.00 0.00 61 1013.7
20260510183056 63 71 1.0 6.0 0.00 0.00 0.00 64 1013.6
20260510182547 63 21 2.0 6.0 0.00 0.00 0.00 62 1013.6
20260510182046 63 125 1.0 4.0 0.00 0.00 0.00 64 1013.7
20260510181550 63 30 1.0 5.0 0.00 0.00 0.00 65 1013.6
20260510181044 62 119 2.0 5.0 0.00 0.00 0.00 66 1013.6
20260510180645 61 204 2.0 6.0 0.00 0.00 0.00 67 1013.6
20260510180029 62 200 3.0 6.0 0.00 0.00 0.00 67 1013.6
20260510175527 61 311 2.0 8.0 0.00 0.00 0.00 67 1013.6
20260510175025 61 177 4.0 8.0 0.00 0.00 0.00 68 1013.5
20260510174524 60 169 1.0 9.0 0.00 0.00 0.00 69 1013.4
20260510174023 60 254 3.0 11.0 0.00 0.00 0.00 69 1013.4
20260510173522 61 344 1.0 11.0 0.00 0.00 0.00 69 1013.3
20260510173020 61 168 1.0 5.0 0.00 0.00 0.00 69 1013.3
20260510172519 59 38 1.0 9.0 0.00 0.00 0.00 70 1013.3
20260510172017 60 211 2.0 9.0 0.00 0.00 0.00 70 1013.3
20260510171516 60 190 3.0 8.0 0.00 0.00 0.00 69 1013.2
20260510171017 60 143 2.0 5.0 0.00 0.00 0.00 68 1013.0
20260510170104 60 137 1.0 6.0 0.00 0.00 0.00 68 1012.9
20260510165558 60 87 2.0 6.0 0.00 0.00 0.00 69 1012.9
20260510165056 60 178 1.0 6.0 0.00 0.00 0.00 68 1012.9
20260510164556 60 184 2.0 7.0 0.00 0.00 0.00 68 1012.8
20260510164055 59 232 1.0 12.0 0.00 0.00 0.00 69 1012.8
20260510163554 59 111 1.0 12.0 0.00 0.00 0.00 70 1013.0
20260510163053 58 171 2.0 9.0 0.00 0.00 0.00 70 1013.1
20260510162551 58 254 1.0 5.0 0.00 0.00 0.00 70 1013.1
20260510162050 58 16 1.0 6.0 0.00 0.00 0.00 70 1013.2
20260510161549 58 273 0.0 6.0 0.00 0.00 0.00 69 1013.2
20260510161048 57 348 1.0 6.0 0.00 0.00 0.00 68 1013.4
20260510160547 57 23 1.0 4.0 0.00 0.00 0.00 68 1013.2
20260510160107 56 275 1.0 4.0 0.00 0.00 0.00 68 1013.1
20260510155543 56 38 2.0 4.0 0.00 0.00 0.00 69 1013.1
20260510155042 55 317 0.0 3.0 0.00 0.00 0.00 70 1013.1
20260510154541 55 255 1.0 3.0 0.00 0.00 0.00 71 1012.9
20260510154040 55 344 0.0 2.0 0.00 0.00 0.00 72 1012.8
20260510153537 55 349 0.0 3.0 0.00 0.00 0.00 72 1013.0
20260510153040 54 346 1.0 3.0 0.00 0.00 0.00 74 1013.0
20260510152537 54 342 0.0 1.0 0.00 0.00 0.00 74 1012.9
20260510152034 54 342 0.0 1.0 0.00 0.00 0.00 74 1012.9
20260510151534 53 342 0.0 1.0 0.00 0.00 0.00 74 1013.0
20260510151031 53 342 0.0 1.0 0.00 0.00 0.00 74 1013.0
20260510150531 53 342 0.0 3.0 0.00 0.00 0.00 74 1013.1
20260510150029 53 342 0.0 3.0 0.00 0.00 0.00 74 1013.0
20260510145527 53 342 0.0 2.0 0.00 0.00 0.00 74 1013.0
20260510145024 53 342 0.0 2.0 0.00 0.00 0.00 74 1012.8
20260510144527 53 342 0.0 0.0 0.00 0.00 0.00 74 1012.7
20260510144022 53 342 0.0 1.0 0.00 0.00 0.00 74 1012.9
20260510143519 52 342 0.0 2.0 0.00 0.00 0.00 74 1012.8
20260510143026 52 342 0.0 2.0 0.00 0.00 0.00 74 1012.7
20260510142517 52 343 0.0 2.0 0.00 0.00 0.00 74 1012.7
20260510142016 52 342 0.0 2.0 0.00 0.00 0.00 74 1012.7
20260510141517 52 342 1.0 2.0 0.00 0.00 0.00 74 1012.7
20260510141019 52 344 0.0 2.0 0.00 0.00 0.00 74 1012.7
20260510140512 52 344 0.0 1.0 0.00 0.00 0.00 73 1012.9
20260510140011 51 344 0.0 0.0 0.00 0.00 0.00 73 1012.8
20260510135510 51 344 0.0 1.0 0.00 0.00 0.00 73 1012.7
20260510135012 51 344 0.0 1.0 0.00 0.00 0.00 73 1012.7
20260510134509 51 344 0.0 1.0 0.00 0.00 0.00 73 1012.7
20260510134010 51 344 0.0 3.0 0.00 0.00 0.00 72 1012.5
20260510133507 51 344 0.0 3.0 0.00 0.00 0.00 72 1012.6
20260510133013 51 342 0.0 1.0 0.00 0.00 0.00 72 1012.7
20260510132506 51 342 0.0 2.0 0.00 0.00 0.00 72 1012.6
20260510132005 51 342 0.0 2.0 0.00 0.00 0.00 72 1012.5
20260510131504 51 342 0.0 2.0 0.00 0.00 0.00 72 1012.3
20260510131004 51 342 0.0 2.0 0.00 0.00 0.00 71 1012.3
20260510130503 51 342 1.0 2.0 0.00 0.00 0.00 71 1012.5
20260510130003 51 342 0.0 2.0 0.00 0.00 0.00 71 1012.4
20260510125503 51 342 0.0 2.0 0.00 0.00 0.00 69 1012.2
20260510125100 51 342 0.0 2.0 0.00 0.00 0.00 69 1012.2
20260510125002 51 342 0.0 2.0 0.00 0.00 0.00 69 1012.2
20260510124604 51 342 0.0 2.0 0.00 0.00 0.00 69 1012.2
20260510124058 51 342 0.0 2.0 0.00 0.00 0.00 69 1012.4
20260510123600 52 342 0.0 2.0 0.00 0.00 0.00 69 1012.5
20260510123059 52 342 1.0 2.0 0.00 0.00 0.00 69 1012.4
20260510122557 52 342 1.0 2.0 0.00 0.00 0.00 69 1012.5
20260510122057 52 342 0.0 2.0 0.00 0.00 0.00 68 1012.6
20260510121558 52 342 0.0 2.0 0.00 0.00 0.00 68 1012.6
20260510121056 52 342 1.0 2.0 0.00 0.00 0.00 68 1012.6
20260510120555 52 342 0.0 2.0 0.00 0.00 0.00 68 1012.6
20260510120056 52 342 0.0 2.0 0.00 0.00 0.00 68 1012.6
20260510115555 52 342 1.0 2.0 0.00 0.00 0.00 68 1012.4
20260510115055 52 342 0.0 1.0 0.00 0.00 0.00 68 1012.5
20260510114555 52 342 0.0 1.0 0.00 0.00 0.00 68 1012.5
20260510114054 52 342 0.0 3.0 0.00 0.00 0.00 67 1012.4
20260510113554 52 342 1.0 3.0 0.00 0.00 0.00 67 1012.4
20260510113100 52 287 0.0 2.0 0.00 0.00 0.00 66 1012.5
20260510112554 52 282 0.0 2.0 0.00 0.00 0.00 66 1012.6
20260510112055 52 258 1.0 5.0 0.00 0.00 0.00 66 1012.6
20260510111608 52 258 1.0 5.0 0.00 0.00 0.00 67 1012.5
20260510111051 52 310 0.0 2.0 0.00 0.00 0.00 66 1012.5
20260510110553 52 310 0.0 2.0 0.00 0.00 0.00 65 1012.4
20260510110050 52 310 0.0 2.0 0.00 0.00 0.00 64 1012.5
20260510105550 53 310 1.0 3.0 0.00 0.00 0.00 64 1012.4
20260510105050 53 313 0.0 3.0 0.00 0.00 0.00 65 1012.4
20260510104550 53 18 0.0 2.0 0.00 0.00 0.00 64 1012.4
20260510104049 53 18 0.0 4.0 0.00 0.00 0.00 63 1012.4
20260510103551 53 18 0.0 4.0 0.00 0.00 0.00 63 1012.4
20260510103049 53 344 1.0 4.0 0.00 0.00 0.00 64 1012.4
20260510102548 53 320 1.0 4.0 0.00 0.00 0.00 62 1012.4
20260510102048 53 333 1.0 4.0 0.00 0.00 0.00 63 1012.4
20260510101551 53 5 0.0 2.0 0.00 0.00 0.00 62 1012.4
20260510101050 53 5 1.0 8.0 0.00 0.00 0.00 61 1012.5
20260510100547 53 7 2.0 8.0 0.00 0.00 0.00 62 1012.3
20260510100051 53 181 2.0 8.0 0.00 0.00 0.00 64 1012.5
20260510095547 53 246 1.0 3.0 0.00 0.00 0.00 64 1012.6
20260510095046 53 319 0.0 2.0 0.00 0.00 0.00 63 1012.5
20260510094545 53 319 0.0 2.0 0.00 0.00 0.00 62 1012.6
20260510094045 53 354 1.0 5.0 0.00 0.00 0.00 62 1012.6
20260510093545 53 293 1.0 5.0 0.00 0.00 0.00 62 1012.6
20260510093100 53 313 1.0 2.0 0.00 0.00 0.00 63 1012.5
20260510092545 53 320 0.0 3.0 0.00 0.00 0.00 64 1012.6
20260510092045 53 320 0.0 3.0 0.00 0.00 0.00 63 1012.7
20260510091545 53 311 1.0 3.0 0.00 0.00 0.00 64 1012.9
20260510091044 53 168 0.0 4.0 0.00 0.00 0.00 65 1012.8
20260510090545 53 227 1.0 4.0 0.00 0.00 0.00 64 1012.7
20260510090054 53 28 0.0 2.0 0.00 0.00 0.00 63 1012.8
20260510085544 53 28 1.0 3.0 0.00 0.00 0.00 63 1012.7
20260510085043 53 266 1.0 4.0 0.00 0.00 0.00 64 1012.9
20260510084543 53 278 1.0 5.0 0.00 0.00 0.00 64 1012.8
20260510084042 53 325 0.0 2.0 0.00 0.00 0.00 64 1012.8
20260510083544 53 325 1.0 3.0 0.00 0.00 0.00 64 1012.7
20260510083048 53 325 1.0 3.0 0.00 0.00 0.00 64 1012.8
20260510082542 53 62 1.0 3.0 0.00 0.00 0.00 63 1012.8
20260510082040 53 66 1.0 3.0 0.00 0.00 0.00 64 1012.9
20260510081548 53 347 1.0 2.0 0.00 0.00 0.00 64 1012.8
20260510081038 53 347 1.0 3.0 0.00 0.00 0.00 63 1012.6
20260510080540 54 347 1.0 3.0 0.00 0.00 0.00 62 1012.7
20260510080044 54 348 1.0 3.0 0.00 0.00 0.00 62 1012.7
20260510075536 54 347 1.0 6.0 0.00 0.00 0.00 61 1012.8
20260510075035 54 338 1.0 6.0 0.00 0.00 0.00 59 1012.8
20260510074534 54 278 0.0 6.0 0.00 0.00 0.00 60 1012.5
20260510074033 54 236 1.0 5.0 0.00 0.00 0.00 61 1012.5
20260510073534 54 50 1.0 4.0 0.00 0.00 0.00 61 1012.4
20260510073033 54 42 1.0 5.0 0.00 0.00 0.00 60 1012.4
20260510072533 54 14 1.0 5.0 0.00 0.00 0.00 62 1012.4
20260510072031 54 23 0.0 2.0 0.00 0.00 0.00 62 1012.5
20260510071532 54 23 1.0 2.0 0.00 0.00 0.00 62 1012.5
20260510071030 54 28 0.0 0.0 0.00 0.00 0.00 63 1012.5
20260510070531 54 28 0.0 1.0 0.00 0.00 0.00 62 1012.4
20260510070031 54 28 0.0 2.0 0.00 0.00 0.00 62 1012.5
20260510065533 54 28 0.0 2.0 0.00 0.00 0.00 62 1012.5
20260510065027 54 30 1.0 2.0 0.00 0.00 0.00 62 1012.5
20260510064529 55 32 1.0 2.0 0.00 0.00 0.00 62 1012.5
20260510064024 55 33 0.0 2.0 0.00 0.00 0.00 61 1012.6
20260510063525 55 34 0.0 2.0 0.00 0.00 0.00 60 1012.5
20260510063021 55 34 0.0 6.0 0.00 0.00 0.00 61 1012.5
20260510062521 55 34 2.0 6.0 0.00 0.00 0.00 62 1012.5
20260510062018 55 296 1.0 5.0 0.00 0.00 0.00 62 1012.6
20260510061517 55 44 2.0 5.0 0.00 0.00 0.00 62 1012.6
20260510061017 55 360 1.0 2.0 0.00 0.00 0.00 62 1012.7
20260510060515 55 302 1.0 2.0 0.00 0.00 0.00 61 1012.7
20260510060013 55 303 0.0 4.0 0.00 0.00 0.00 61 1012.6
20260510055515 55 303 1.0 8.0 0.00 0.00 0.00 61 1012.6
20260510055010 55 354 2.0 8.0 0.00 0.00 0.00 61 1012.6
20260510054508 55 305 1.0 3.0 0.00 0.00 0.00 61 1012.5
20260510054006 55 335 1.0 2.0 0.00 0.00 0.00 63 1012.4
20260510053504 55 335 0.0 2.0 0.00 0.00 0.00 63 1012.4
20260510053003 56 335 0.0 4.0 0.00 0.00 0.00 63 1012.5
20260510052502 56 335 1.0 4.0 0.00 0.00 0.00 63 1012.6
20260510052101 56 351 1.0 3.0 0.00 0.00 0.00 62 1012.6
20260510051600 56 285 0.0 2.0 0.00 0.00 0.00 60 1012.6
20260510051059 56 287 1.0 2.0 0.00 0.00 0.00 58 1012.7
20260510050602 56 283 0.0 3.0 0.00 0.00 0.00 58 1012.6
20260510050100 56 283 0.0 3.0 0.00 0.00 0.00 58 1012.7
20260510045558 56 283 1.0 2.0 0.00 0.00 0.00 59 1012.7
20260510045058 57 283 0.0 2.0 0.00 0.00 0.00 59 1012.8
20260510044637 57 283 0.0 2.0 0.00 0.00 0.00 59 1012.9
20260510044056 57 279 0.0 2.0 0.00 0.00 0.00 59 1012.9
20260510043557 58 279 0.0 4.0 0.00 0.00 0.00 59 1012.9
20260510043057 58 278 1.0 5.0 0.00 0.00 0.00 59 1012.9
20260510042558 57 234 2.0 5.0 0.00 0.00 0.00 60 1012.9
20260510042058 57 23 0.0 2.0 0.00 0.00 0.00 57 1012.8
20260510041556 57 23 1.0 2.0 0.00 0.00 0.00 56 1012.9
20260510041057 57 23 0.0 2.0 0.00 0.00 0.00 57 1012.9
20260510040551 58 23 0.0 3.0 0.00 0.00 0.00 56 1012.9
20260510040052 58 23 1.0 3.0 0.00 0.00 0.00 55 1012.8
20260510035550 58 32 1.0 3.0 0.00 0.00 0.00 56 1012.7
20260510035048 58 32 1.0 3.0 0.00 0.00 0.00 57 1012.7
20260510034547 58 32 1.0 3.0 0.00 0.00 0.00 57 1012.7
20260510034046 58 32 0.0 0.0 0.00 0.00 0.00 58 1012.7
20260510033545 59 171 0.0 0.0 0.00 0.00 0.00 59 1012.6
20260510033044 59 171 0.0 0.0 0.00 0.00 0.00 59 1012.7
20260510032541 59 171 0.0 0.0 0.00 0.00 0.00 59 1012.7
20260510032039 59 171 0.0 1.0 0.00 0.00 0.00 59 1012.7
20260510031540 59 171 0.0 2.0 0.00 0.00 0.00 59 1012.7
20260510031109 60 171 0.0 2.0 0.00 0.00 0.00 59 1012.7
20260510030038 60 171 0.0 2.0 0.00 0.00 0.00 59 1012.9
20260510025533 61 169 0.0 1.0 0.00 0.00 0.00 61 1012.9
20260510025033 61 169 0.0 1.0 0.00 0.00 0.00 63 1012.9
20260510024529 61 169 0.0 1.0 0.00 0.00 0.00 63 1012.9
20260510024028 62 169 0.0 1.0 0.00 0.00 0.00 64 1012.9
20260510023528 62 169 0.0 1.0 0.00 0.00 0.00 65 1013.0
20260510023025 62 169 0.0 1.0 0.00 0.00 0.00 65 1013.0
20260510022523 62 169 0.0 0.0 0.00 0.00 0.00 63 1013.0
20260510022023 62 169 0.0 0.0 0.00 0.00 0.00 62 1013.1
20260510021527 63 169 0.0 0.0 0.00 0.00 0.00 60 1013.2
20260510021021 63 169 0.0 1.0 0.00 0.00 0.00 60 1013.3
20260510020518 63 169 0.0 2.0 0.00 0.00 0.00 57 1013.4
20260510020018 63 169 0.0 2.0 0.00 0.00 0.00 58 1013.3
20260510015514 64 169 0.0 1.0 0.00 0.00 0.00 56 1013.5
20260510015027 63 169 0.0 1.0 0.00 0.00 0.00 55 1013.6
20260510010020 65 151 0.0 6.0 0.00 0.00 0.00 53 1014.3
20260510005518 65 208 2.0 6.0 0.00 0.00 0.00 53 1014.4
20260510005017 65 159 2.0 6.0 0.00 0.00 0.00 52 1014.5
20260510004515 65 184 2.0 6.0 0.00 0.00 0.00 52 1014.5
20260510004019 66 144 1.0 4.0 0.00 0.00 0.00 54 1014.5
20260510003513 66 178 1.0 6.0 0.00 0.00 0.00 53 1014.6
20260510003021 66 141 1.0 7.0 0.00 0.00 0.00 51 1014.5
20260510002509 66 193 0.0 7.0 0.00 0.00 0.00 53 1014.6
20260510002010 67 223 1.0 4.0 0.00 0.00 0.00 53 1014.5
20260510001507 66 200 3.0 4.0 0.00 0.00 0.00 50 1014.6
20260510001005 67 19 0.0 4.0 0.00 0.00 0.00 53 1014.8
20260510000504 66 151 0.0 7.0 0.00 0.00 0.00 52 1014.9
20260510000002 66 152 2.0 7.0 0.00 0.00 0.00 54 1014.9
20260509235501 66 152 1.0 4.0 0.00 0.00 0.00 51 1015.0
20260509235101 66 231 1.0 4.0 0.00 0.00 0.00 52 1015.1
20260509234633 66 207 2.0 4.0 0.00 0.00 0.00 51 1015.2
20260509234057 67 38 1.0 5.0 0.00 0.00 0.00 54 1015.2
20260509233556 66 48 1.0 5.0 0.00 0.00 0.00 53 1015.3
20260509233053 66 221 1.0 4.0 0.00 0.00 0.00 53 1015.4
20260509232554 66 150 1.0 5.0 0.00 0.00 0.00 53 1015.4
20260509232051 66 185 2.0 5.0 0.00 0.00 0.00 51 1015.6
20260509231549 66 65 0.0 6.0 0.00 0.00 0.00 54 1015.7
20260509231047 65 162 2.0 6.0 0.00 0.00 0.00 53 1015.8
20260509230646 65 236 2.0 6.0 0.00 0.00 0.00 54 1015.9
20260509230056 64 130 3.0 6.0 0.00 0.00 0.00 54 1016.1
20260509225554 64 138 1.0 6.0 0.00 0.00 0.00 56 1016.0
20260509225052 64 158 1.0 6.0 0.00 0.00 0.00 54 1016.1
20260509224551 65 111 1.0 7.0 0.00 0.00 0.00 55 1016.2
20260509224051 64 146 2.0 7.0 0.00 0.00 0.00 54 1016.3
20260509223549 65 136 1.0 4.0 0.00 0.00 0.00 55 1016.4
20260509223047 65 165 1.0 5.0 0.00 0.00 0.00 55 1016.5
20260509222547 64 180 2.0 7.0 0.00 0.00 0.00 56 1016.5
20260509222045 65 184 2.0 5.0 0.00 0.00 0.00 56 1016.4
20260509221542 64 151 1.0 5.0 0.00 0.00 0.00 55 1016.5
20260509221041 65 111 1.0 8.0 0.00 0.00 0.00 57 1016.5
20260509220640 65 159 2.0 8.0 0.00 0.00 0.00 54 1016.7